Wind_Speed
15 16 16 16 16 14 13 14 14 14 13 10 11 12 12 12 13 13 12 12 13 12 12 12 11 11 12 12 13 12 12 12 12
16 17 18 17 15 15 14 15 13 12 11 12 13 14 14 14 13 13 13 12 12 12 11 11 12 12 13 13 13 13 13 13 13
16 17 17 17 16 15 14 12 12 13 13 13 14 15 15 14 14 13 13 12 12 12 12 12 12 13 13 13 13 13 14 14 14
15 16 17 17 16 14 12 12 13 14 14 15 15 15 15 14 13 13 13 12 12 12 12 12 13 13 13 13 13 13 14 14 14
16 15 15 15 14 13 13 14 14 14 15 14 14 13 12 12 11 11 11 11 11 11 12 12 12 12 12 12 12 12 12 13 14
16 15 15 14 14 14 14 14 13 12 13 12 12 11 10 10 10 10 10 10 10 11 11 11 11 11 11 11 11 12 12 13 13
17 16 15 14 14 13 13 13 12 11 11 11 10 9 8 8 8 8 8 8 9 9 9 10 10 10 11 11 12 12 12 12 13
16 16 16 15 14 13 13 12 12 11 10 9 8 7 6 7 7 7 8 8 8 9 9 9 10 10 11 12 12 13 13 13 13
16 16 16 16 14 13 13 14 13 12 11 10 8 6 6 7 7 7 8 9 10 10 11 10 11 11 12 12 13 13 14 13 13
16 16 16 16 16 15 14 11 9 7 6 6 7 8 6 6 7 7 8 8 10 10 11 11 12 12 13 14 15 15 15 15 15
20 19 19 17 15 12 10 7 5 2 1 3 5 6 7 5 6 6 7 7 9 10 11 12 14 14 15 17 18 17 17 17 16
22 21 20 17 14 12 9 8 5 4 5 6 7 8 8 7 5 5 6 8 9 10 11 13 14 16 18 20 20 20 18 19 19
22 21 20 17 15 13 10 9 9 9 10 10 10 10 10 10 8 8 8 8 10 11 13 14 15 16 18 20 21 20 18 19 18
23 21 20 18 16 15 14 14 14 14 13 14 13 13 13 13 11 10 10 10 11 12 14 15 17 19 20 22 23 19 17 16 16
23 22 22 20 20 19 18 18 19 19 18 18 17 16 17 16 14 13 13 12 12 14 15 18 19 20 22 24 26 23 18 17 17
25 25 25 24 24 23 24 24 24 23 23 21 20 20 21 19 18 17 15 16 15 16 19 19 20 23 23 25 27 25 21 17 21
25 24 25 26 26 28 27 28 27 27 26 25 25 24 23 22 20 20 18 20 19 19 22 22 22 24 24 27 30 27 23 18 18
27 30 27 25 27 28 29 30 29 28 29 28 29 26 24 23 23 23 22 22 22 24 24 25 26 25 28 30 31 29 27 24 21
38 40 42 37 33 34 30 39 40 30 27 31 29 29 27 25 25 25 27 25 24 25 26 29 30 29 25 33 33 31 29 27 23
37 39 39 36 36 31 36 37 46 44 41 46 35 29 31 31 27 28 31 26 26 29 33 33 32 26 30 34 36 32 30 26 22
Wind_Direction
151 150 147 142 134 130 126 121 115 109 106 106 95 93 90 86 80 79 77 76 75 74 71 66 58 53 47 43 41 38 37 36 35
145 144 142 139 135 132 128 123 116 111 107 103 99 95 90 86 84 83 80 77 74 70 65 59 54 50 45 42 40 37 34 33 33
147 145 143 138 136 131 127 123 117 110 107 105 99 93 90 86 83 81 79 76 72 67 61 55 51 47 44 40 36 34 31 29 28
147 144 141 139 136 131 129 124 115 111 108 103 95 90 87 82 80 76 72 68 63 59 54 50 46 42 38 36 31 29 27 24 23
144 144 141 139 135 134 132 123 115 110 103 94 89 84 83 79 72 67 62 57 52 48 42 39 35 30 28 24 20 20 18 15 14
149 148 143 142 139 137 130 120 112 106 101 94 88 82 75 72 64 57 51 45 40 36 33 28 23 16 14 9 5 4 4 2 0
151 148 145 143 140 135 126 115 104 95 90 89 76 68 60 57 48 41 36 30 27 21 18 16 9 4 2 355 353 351 348 349 348
155 150 147 144 140 134 122 111 103 94 84 81 76 58 48 44 33 26 22 20 19 17 16 11 7 1 354 349 346 343 340 340 339
157 155 151 147 141 132 119 109 99 88 75 63 56 49 25 23 17 18 19 23 21 20 17 14 9 4 356 351 345 339 337 335 334
159 156 151 142 136 131 125 116 108 91 70 41 27 28 23 14 10 15 18 18 16 18 17 16 12 5 356 349 340 336 333 332 330
158 155 151 148 147 145 147 148 158 190 319 316 330 349 1 0 2 2 4 2 2 4 4 5 5 0 354 345 335 330 328 322 321
164 163 164 166 168 172 179 195 217 246 276 292 300 307 322 330 323 336 343 341 345 347 347 348 351 349 350 347 336 329 323 318 316
177 177 179 184 190 199 210 223 247 261 273 282 286 288 293 307 300 303 318 325 326 331 335 333 333 338 340 342 338 331 324 319 317
190 193 199 203 210 221 231 240 250 260 266 270 271 273 275 282 287 284 292 305 315 317 321 322 330 333 332 335 338 331 324 324 325
205 209 214 224 232 241 248 254 258 260 261 265 269 271 268 271 277 276 281 290 301 305 310 316 321 325 326 329 334 334 322 319 313
219 224 230 235 243 249 254 258 262 266 267 266 264 264 261 261 265 266 270 279 287 290 297 302 313 316 320 323 328 325 330 318 310
241 242 248 253 257 260 261 261 263 265 266 264 262 261 258 256 258 262 264 274 281 284 288 295 307 308 320 321 322 319 317 305 284
249 250 253 266 263 265 270 269 263 263 262 263 261 257 253 253 255 260 263 267 274 278 284 291 301 309 308 315 316 314 314 314 303
250 256 260 259 264 262 265 267 265 259 265 265 263 259 251 248 251 257 263 268 274 279 283 292 300 302 297 309 314 309 310 309 304
240 257 259 265 259 253 277 279 270 248 253 263 254 252 250 248 253 261 263 271 275 277 280 284 294 298 286 308 308 304 306 301 295
Height
3181 3182 3184 3185 3187 3189 3190 3192 3193 3194 3195 3195 3196 3195 3195 3195 3195 3195 3195 3195 3194 3194 3194 3193 3192 3191 3190 3189 3188 3187 3185 3184 3183
3182 3184 3185 3187 3188 3190 3192 3193 3195 3195 3196 3197 3197 3197 3197 3197 3197 3197 3196 3196 3196 3196 3195 3194 3193 3192 3191 3190 3189 3188 3186 3185 3183
3184 3185 3187 3188 3190 3192 3193 3195 3196 3197 3198 3198 3198 3198 3198 3199 3199 3199 3198 3198 3198 3197 3196 3196 3194 3194 3192 3191 3190 3189 3187 3186 3184
3186 3187 3188 3190 3192 3193 3195 3197 3197 3198 3199 3200 3200 3200 3200 3201 3200 3200 3200 3200 3199 3199 3198 3197 3196 3195 3193 3192 3191 3190 3188 3187 3185
3187 3189 3190 3192 3193 3195 3197 3197 3198 3200 3201 3201 3201 3202 3202 3202 3202 3202 3201 3201 3200 3200 3199 3198 3196 3195 3194 3193 3192 3190 3189 3188 3186
3186 3189 3191 3193 3194 3196 3198 3199 3200 3201 3203 3203 3204 3204 3204 3203 3203 3203 3203 3202 3201 3200 3199 3198 3197 3196 3194 3193 3192 3191 3190 3188 3187
3186 3189 3192 3194 3195 3197 3199 3200 3201 3203 3204 3205 3205 3206 3205 3204 3204 3204 3203 3203 3202 3201 3199 3198 3197 3196 3194 3194 3192 3191 3189 3188 3187
3187 3189 3191 3194 3196 3198 3199 3201 3202 3203 3205 3206 3207 3206 3206 3205 3205 3204 3203 3203 3201 3200 3199 3198 3197 3196 3195 3194 3192 3191 3189 3187 3186
3188 3190 3192 3194 3196 3199 3200 3201 3203 3204 3205 3206 3207 3207 3207 3206 3205 3204 3204 3203 3202 3200 3199 3198 3197 3195 3194 3193 3191 3190 3188 3186 3185
3187 3190 3193 3195 3197 3199 3200 3202 3203 3204 3205 3206 3207 3207 3207 3206 3205 3204 3203 3203 3202 3200 3199 3198 3196 3195 3194 3192 3190 3188 3186 3185 3183
3187 3190 3193 3195 3197 3199 3200 3202 3203 3204 3204 3206 3206 3206 3206 3205 3204 3203 3203 3202 3201 3200 3199 3198 3196 3195 3193 3191 3189 3187 3184 3182 3180
3186 3189 3192 3194 3196 3197 3199 3200 3202 3203 3204 3205 3205 3204 3204 3204 3203 3202 3201 3201 3200 3199 3198 3196 3195 3194 3192 3189 3186 3184 3182 3180 3177
3185 3188 3191 3193 3195 3196 3198 3199 3200 3201 3202 3202 3203 3203 3202 3202 3202 3201 3200 3199 3198 3197 3196 3194 3193 3192 3190 3188 3184 3181 3179 3176 3174
3185 3187 3190 3192 3193 3194 3196 3197 3198 3198 3199 3199 3199 3200 3199 3199 3199 3199 3198 3197 3196 3195 3193 3192 3190 3189 3187 3184 3182 3179 3176 3173 3171
3183 3186 3188 3190 3192 3194 3195 3195 3195 3195 3195 3195 3195 3196 3195 3196 3196 3196 3195 3194 3193 3192 3190 3189 3187 3185 3183 3181 3178 3176 3174 3172 3169
3181 3183 3185 3187 3188 3189 3190 3191 3192 3192 3192 3192 3191 3191 3190 3190 3191 3190 3190 3190 3189 3189 3187 3185 3184 3182 3180 3177 3174 3172 3171 3170 3167
3177 3178 3180 3183 3184 3185 3185 3186 3187 3187 3187 3187 3186 3186 3187 3186 3185 3185 3184 3184 3184 3183 3182 3181 3179 3177 3175 3173 3170 3168 3166 3166 3165
3172 3174 3175 3177 3178 3179 3181 3181 3181 3181 3180 3181 3181 3181 3181 3181 3180 3180 3180 3179 3179 3178 3178 3177 3175 3172 3171 3169 3166 3163 3161 3158 3158
3166 3168 3170 3172 3173 3173 3173 3174 3176 3174 3174 3174 3176 3176 3175 3174 3175 3175 3174 3174 3173 3173 3171 3171 3169 3167 3166 3163 3161 3158 3155 3153 3151
3160 3162 3164 3164 3164 3164 3164 3163 3163 3163 3166 3168 3168 3169 3169 3169 3168 3169 3169 3167 3167 3166 3165 3164 3162 3161 3157 3157 3154 3152 3149 3147 3145